STARLINK-32297, 61521

Orbit data source: Space-Track

STARLINK-32297, 61521 is a payload satellite owned by SpaceX/Seattle (US) in LEO that was launched on Tue, 15 Oct 2024 UTC via an FALCON 9 launch vehicle from the Air Force Eastern Test Range (AFETR). Payload-class satellites include a variety of spacecraft equipped with specific instruments for various scientific and technological missions. These include communications satellites like Starlink; space stations such as the ISS; scientific satellites like the Hubble; Earth observation satellites from companies like Planet Labs, Umbra, and HawkEye 360; GPS; miniature CubeSats for education and research; and military/defense satellites.

Loading next visibility...
Identifier
61521, 2024-183N
Orbit
LEO
Country
Flag of USUS
Related business
Manufacturer
SpaceX/Seattle
Mission
Operational Commercial Communications
Bus & Motor
STARLINK V2M, Unknown motor
Mass
730 kg wet, ~700 kg dry
Launch date (UTC)
2024-10-15 (1 year ago)
Launch vehicle
FALCON 9
Launch site
Air Force Eastern Test Range (AFETR)
Object type
Payload
Rocket body
Debris
Shape & HBR
Box + 2 Pan, 17.7 m
Radar Cross Section
33.884 m², Large (>1 m²)

Expand to show TLE details & history
Last TLE update: 1 day ago

TLE from 1 day ago
0 STARLINK-32297
1 61521U 24183N   25348.83229153  .00000199  00000-0  18856-4 0  9999
2 61521  53.1598 176.3613 0001071  95.5296 264.5827 15.30195296 66669
Epoch: 2025-12-14T19:58Z
TLE epoch observation values (Epoch: 2025-12-14T19:58:29.988Z)
Latitude
-0°
Longitude
152.9968°
Altitude
476.198 km
Speed
7.629 km/s
True Right ascension
11h 45m 26s
True Declination
0° 00' 00"
Sunlit
Object was in daylight at epoch
Visualization orbit readout
Latitude
Unknown
Longitude
Unknown
Altitude
Unknown
Speed
Unknown
Apparent Right ascension
Unknown
Apparent Declination
Unknown
Sunlit
N/A
Visualization observer readout
Local Sidereal Time
18:09:10
Azimuth
Unknown
Elevation
Unknown
Doppler factor
Unknown
Orbital elements
Apogee altitude
476.22 km
Perigee altitude
474.752 km
Semi-major axis
6,853.623 km
Eccentricity
0.00011
Inclination
53.1598°
RAAN
176.3613°
Arg. of periapsis
95.5296°
True anomaly
264.57048°
Mean anomaly
264.5827°
Eccentric anomaly
264.57659°
Mean motion
3.82528 °/min
Orbital period
94.11 mins
BSTAR
0.000018856
Loading maneuver chart data...
Computing Atmospheric mass density...
Loading historical data...
Loading historical data...
Loading historical data...
Loading historical data...
Loading historical data...
Loading historical data...
Loading historical data...

Documentation

Showing up to 5 results
|